Weather History for KFWA - June, 2013

Change the Weather History Date:

Wednesday, June 5, 2013

  Actual Average Record
Temperature  
Mean Temperature 65 °F 67 °F  
Max Temperature 77 °F 78 °F 97 °F (1925)
Min Temperature 52 °F 56 °F 41 °F (1954)
Degree Days  
Heating Degree Days 0 2  
Month to date heating degree days 18 12  
Since 1 June heating degree days 18 12  
Since 1 July heating degree days 5999 6084  
Cooling Degree Days 0 4  
Month to date cooling degree days 5 19  
Year to date cooling degree days 110 76  
Since 1 June cooling degree days 5 19  
Growing Degree Days 14 (Base 50)    
Moisture  
Dew Point 48 °F    
Average Humidity 57    
Maximum Humidity 71    
Minimum Humidity 43    
Precipitation  
Precipitation 0.00 in 0.15 in 1.89 in (2000)
Month to date precipitation 0.58 0.78  
Year to date precipitation 18.25 15.58  
Snow  
Snow 0.00 in 0.00 in 0.00 in (2002)
Month to date snowfall 0.0 0.0  
Since 1 June snowfall 0.0 0.0  
Since 1 July snowfall 38.5 33.5  
Snow Depth 0.00 in    
Sea Level Pressure  
Sea Level Pressure 30.05 in    
Wind  
Wind Speed 10 mph (ENE)    
Max Wind Speed 18 mph    
Max Gust Speed 23 mph    
Visibility 10 miles    
Events      
T = Trace of Precipitation, MM = Missing Value Source: NWS Daily Summary

Daily Weather History Graph

Daily Weather History Graph

Search for Another Location

Airport or City:

Trip Planner

Search our weather history database for the weather conditions in past years. The results will help you decide how hot, cold, wet, or windy it might be!

Date:

Astronomy

Jun. 05, 2013 Rise Set
Actual Time 6:09 AM EDT 9:09 PM EDT
Civil Twilight 5:36 AM EDT 9:42 PM EDT
Nautical Twilight 4:54 AM EDT 10:24 PM EDT
Astronomical Twilight 4:05 AM EDT 11:14 PM EDT
Moon 4:14 AM EDT (6/5) 6:34 PM EDT (6/5)
Length of Visible Light 16h 06m
Length of Day
15h 00m
Waning Crescent, 8% of the Moon is Illuminated
Jun 5
Waning Crescent
Jun 8
New
Jun 16
First Quarter
Jun 23
Full
Jun 30
Last Quarter

Hourly Weather History & Observations

Time (EDT) Temp. Dew Point Humidity Pressure Visibility Wind Dir Wind Speed Gust Speed Precip Events Conditions
12:54 AM 60.1 °F 46.0 °F 60% 30.14 in 10.0 mi East 10.4 mph - N/A   Overcast
1:54 AM 57.9 °F 46.0 °F 65% 30.12 in 10.0 mi East 9.2 mph - N/A   Overcast
2:54 AM 57.9 °F 43.0 °F 58% 30.12 in 10.0 mi East 9.2 mph - N/A   Overcast
3:54 AM 55.9 °F 44.1 °F 64% 30.11 in 10.0 mi East 8.1 mph - N/A   Overcast
4:54 AM 53.1 °F 43.0 °F 69% 30.12 in 10.0 mi ENE 6.9 mph - N/A   Mostly Cloudy
5:54 AM 53.1 °F 45.0 °F 74% 30.12 in 10.0 mi NE 9.2 mph - N/A   Scattered Clouds
6:54 AM 54.0 °F 45.0 °F 72% 30.13 in 10.0 mi NE 8.1 mph - N/A   Scattered Clouds
7:54 AM 57.0 °F 45.0 °F 64% 30.13 in 10.0 mi ENE 9.2 mph - N/A   Scattered Clouds
8:54 AM 61.0 °F 46.9 °F 60% 30.12 in 10.0 mi ENE 9.2 mph - N/A   Scattered Clouds
9:54 AM 64.0 °F 48.9 °F 58% 30.11 in 10.0 mi ENE 11.5 mph - N/A   Scattered Clouds
10:54 AM 68.0 °F 51.1 °F 55% 30.07 in 10.0 mi NE 11.5 mph - N/A   Partly Cloudy
11:54 AM 71.1 °F 52.0 °F 51% 30.06 in 10.0 mi East 10.4 mph - N/A   Partly Cloudy
12:54 PM 73.0 °F 52.0 °F 48% 30.06 in 10.0 mi East 8.1 mph - N/A   Partly Cloudy
1:54 PM 75.0 °F 53.1 °F 46% 30.04 in 10.0 mi East 10.4 mph - N/A   Mostly Cloudy
2:54 PM 75.0 °F 52.0 °F 44% 30.01 in 10.0 mi East 9.2 mph 16.1 mph N/A   Scattered Clouds
3:54 PM 75.9 °F 53.1 °F 45% 29.99 in 10.0 mi ENE 8.1 mph 17.3 mph N/A   Mostly Cloudy
4:54 PM 75.9 °F 51.1 °F 42% 29.98 in 10.0 mi ENE 10.4 mph - N/A   Mostly Cloudy
5:54 PM 75.9 °F 52.0 °F 43% 29.95 in 10.0 mi ENE 12.7 mph 16.1 mph N/A   Mostly Cloudy
6:54 PM 75.0 °F 51.1 °F 43% 29.94 in 10.0 mi ENE 10.4 mph - N/A   Mostly Cloudy
7:54 PM 73.0 °F 51.1 °F 46% 29.94 in 10.0 mi NE 16.1 mph - N/A   Scattered Clouds
8:54 PM 69.1 °F 51.1 °F 53% 29.94 in 10.0 mi ENE 13.8 mph - N/A   Mostly Cloudy
9:54 PM 66.0 °F 46.0 °F 48% 29.94 in 10.0 mi ENE 12.7 mph - N/A   Mostly Cloudy
10:54 PM 63.0 °F 41.0 °F 45% 29.95 in 10.0 mi ENE 13.8 mph - N/A   Mostly Cloudy
11:54 PM 61.0 °F 44.1 °F 54% 29.95 in 10.0 mi ENE 11.5 mph - N/A   Mostly Cloudy